This demonstration page uses our WeatherBlox Daily Observations layout. Learn more.

Left ArrowRight Arrow

40.97296, -117.73568

Hourly Observations for March 25, 2016

Temp ( °F °C ) Dew Point ( °F °C ) Humidity (%) Winds ( mph kmh ) Pressure ( in mb ) Visibility ( mi km ) Precip ( " mm )
12:56 am 00:56 Clear 35 1.7 20 -6.7 54 54 SW 6 9 30.07 1018 10 16 0.00 0.00
1:56 am 01:56 Clear 36 2.2 19 -7.2 50 50 VRB 3 6 30.07 1018 10 16 0.00 0.00
2:56 am 02:56 Clear 28 -2.2 18 -7.8 66 66 SE 5 7 30.08 1019 10 16 0.00 0.00
3:56 am 03:56 Clear 27 -2.8 17 -8.3 66 66 Calm 30.06 1018 10 16 0.00 0.00
4:56 am 04:56 Clear 24 -4.4 15 -9.4 68 68 NNE 3 6 30.07 1018 10 16 0.00 0.00
5:56 am 05:56 Clear 25 -3.9 17 -8.3 72 72 Calm 30.07 1018 10 16 0.00 0.00
6:56 am 06:56 Sunny 19 -7.2 12 -11.1 74 74 Calm 30.10 1019 10 16 0.00 0.00
7:56 am 07:56 Sunny 29 -1.7 18 -7.8 63 63 SSE 3 6 30.09 1019 10 16 0.00 0.00
8:56 am 08:56 Sunny 39 3.9 19 -7.2 45 45 VRB 3 6 30.06 1018 10 16 0.00 0.00
9:56 am 09:56 Sunny 45 7.2 20 -6.7 37 37 W 6 9 30.05 1018 10 16 0.00 0.00
10:56 am 10:56 Sunny 48 8.9 17 -8.3 29 29 VRB 6 9 30.04 1017 10 16 0.00 0.00
11:56 am 11:56 Sunny 51 10.6 15 -9.4 24 24 W 12 19 30.04 1017 10 16 0.00 0.00
12:56 pm 12:56 Sunny 53 11.7 8 -13.3 16 16 W 12 19 30.01 1016 10 16 0.00 0.00
1:56 pm 13:56 Sunny 55 12.8 8 -13.3 15 15 W 10 17 29.96 1015 10 16 0.00 0.00
2:56 pm 14:56 Sunny 55 12.8 9 -12.8 16 16 W 15 24 29.96 1014 10 16 0.00 0.00
3:56 pm 15:56 Sunny 57 13.9 10 -12.2 15 15 WNW 15 24 29.93 1014 10 16 0.00 0.00
4:56 pm 16:56 Sunny 57 13.9 10 -12.2 15 15 WNW 14 22 29.93 1013 10 16 0.00 0.00
5:56 pm 17:56 Sunny 54 12.2 12 -11.1 19 19 NW 18 30 29.92 1013 10 16 0.00 0.00
6:56 pm 18:56 Sunny 50 10 13 -10.6 22 22 N 14 22 29.97 1015 10 16 0.00 0.00
7:56 pm 19:56 Partly Cloudy 46 7.8 13 -10.6 26 26 N 15 24 29.98 1015 10 16 0.00 0.00
8:56 pm 20:56 Clear 41 5 17 -8.3 38 38 N 10 17 30.02 1017 10 16 0.00 0.00
9:56 pm 21:56 Mostly Cloudy 40 4.4 17 -8.3 40 40 ENE 12 19 30.05 1018 10 16 0.00 0.00
10:56 pm 22:56 Partly Cloudy 37 2.8 19 -7.2 48 48 NE 16 26 30.08 1019 10 16 0.00 0.00
11:56 pm 23:56 Clear 35 1.7 21 -6.1 57 57 N 12 19 30.09 1019 10 16 0.00 0.00

Powered by AerisWeather